カタログに戻る

TRAILBLAZER 2

運用中科学LEO
NORAD 27609·PAYLOAD·🇺🇸 United States

打ち上げ Dec 20, 2002 から Baikonur Cosmodrome

Loading…

次のパス (今後24時間)

TLE

最新Source: Space-Track

元期: Sep 14, 2026, 11:03 UTC

1 27609U 02058E   26257.46044988  .00000213  00000-0  45534-4 0  9995
2 27609  64.5548  61.3598 0042678 231.5601 128.1671 14.81398226280915

AllMySatでTRAILBLAZER 2をリアルタイム追跡

Download on the App Store